Wind_Speed
5 6 8 10 12 13 14 15 15 16 18 19 20 21 22 21 21 21 23 24 24 25 25 25 25 25 26 26 27 27 27 28 29 30 31 31 32 33 33 34 34 34 35
6 8 10 11 12 13 15 15 16 17 17 18 19 20 21 21 20 21 23 25 26 27 27 27 28 29 30 30 30 31 31 32 32 33 34 35 35 36 36 37 38 38 38
10 11 12 13 13 14 15 15 15 16 17 18 18 19 19 19 20 20 22 25 27 28 29 31 31 31 33 34 34 34 35 36 36 37 38 38 39 39 39 40 40 41 41
14 14 15 16 16 17 17 17 16 16 17 17 18 19 20 20 19 20 21 24 26 29 30 31 33 34 34 35 36 38 39 39 40 41 41 42 42 42 43 44 44 45 45
18 18 19 19 20 20 20 20 19 19 19 19 19 20 20 21 22 22 23 24 26 28 30 32 34 35 37 38 39 40 41 43 43 44 44 45 45 46 47 48 49 49 49
22 22 23 24 25 25 24 23 22 21 21 21 21 21 21 22 23 24 25 26 27 28 29 31 33 35 37 39 40 42 43 44 45 46 47 48 49 50 51 52 53 53 53
27 26 27 28 28 29 28 26 25 24 23 23 23 24 24 25 25 26 26 28 30 31 32 33 34 36 38 39 42 43 45 46 48 49 51 52 54 55 56 57 58 59 59
31 31 31 31 31 31 30 28 27 27 27 26 26 27 27 28 28 29 30 31 33 34 36 37 39 40 41 43 45 47 48 50 52 54 56 58 59 61 62 63 64 65 66
35 35 34 34 33 33 31 30 30 29 29 29 30 31 31 31 32 33 35 36 37 39 40 42 43 45 46 47 49 50 52 54 56 58 60 62 64 66 68 69 70 72 72
38 37 37 36 35 34 34 33 32 32 32 32 33 35 36 36 37 38 39 41 43 44 46 47 49 50 52 53 55 56 58 60 62 64 67 69 70 72 74 75 76 77 77
38 39 38 37 37 37 35 34 34 35 35 36 37 39 40 41 42 43 44 46 48 50 51 53 54 56 58 59 61 62 64 66 68 70 72 74 75 76 77 78 78 78 78
40 40 40 39 38 37 36 36 38 39 39 40 41 42 44 45 46 48 49 51 53 55 56 58 60 61 62 64 66 68 70 71 73 75 76 77 78 78 78 78 78 78 77
41 42 41 40 39 39 39 40 41 42 43 44 46 47 48 49 51 52 54 55 56 58 60 62 64 65 66 68 70 72 74 75 76 77 78 78 79 78 78 77 76 75 74
42 42 42 41 42 43 43 44 45 46 47 48 50 51 52 54 55 56 57 58 59 60 62 64 66 68 70 71 73 74 75 76 77 77 77 77 76 75 74 73 72 71 71
44 44 45 45 45 46 48 49 50 50 51 53 54 55 56 57 58 59 59 60 61 61 63 65 67 69 70 71 72 73 73 74 74 74 73 73 72 71 70 69 68 68 67
47 47 48 48 50 51 53 54 55 56 56 57 57 58 58 59 60 60 61 62 62 63 64 65 67 68 69 70 70 70 70 70 69 69 68 68 68 67 67 66 65 63 62
51 52 53 54 55 57 58 59 59 59 60 60 60 60 60 60 60 61 62 63 63 64 64 65 66 67 67 67 67 66 66 65 64 64 63 63 62 60 59 58 57 57 56
56 57 58 58 59 61 62 62 62 62 62 62 61 61 61 61 61 62 62 62 63 64 64 63 64 64 64 64 63 62 61 60 60 59 57 56 56 55 54 53 52 51 51
59 61 62 63 63 63 64 64 63 63 62 62 61 60 60 60 61 61 61 62 62 62 63 61 60 60 59 58 57 57 56 56 55 53 52 51 50 48 47 46 45 45 45
61 62 63 63 64 63 63 63 62 61 61 60 59 59 59 59 59 59 60 60 60 59 58 57 56 55 54 54 53 51 50 48 47 46 45 44 42 42 41 41 41 40 40
60 61 61 62 62 61 60 59 57 57 57 57 57 57 57 57 57 57 57 57 56 54 53 53 52 50 48 47 46 44 41 39 38 38 37 38 38 37 37 36 36 35 35
57 57 56 56 55 55 55 55 55 55 55 55 55 55 55 55 55 54 53 53 51 49 47 46 44 42 40 38 36 34 33 32 32 33 33 33 33 32 32 31 31 31 31
50 51 52 52 52 52 53 53 53 53 53 53 53 53 52 51 49 48 48 46 44 42 41 39 36 33 31 29 28 28 29 30 30 30 29 28 29 29 29 29 28 28 28
48 49 49 50 50 51 51 51 51 51 50 49 48 46 45 44 43 42 40 39 38 36 33 30 27 25 25 24 25 25 26 26 27 28 27 26 27 27 27 26 25 25 25
46 47 47 47 47 47 47 46 45 44 43 42 41 40 39 39 37 34 33 32 30 27 25 23 22 21 21 21 22 23 23 23 24 25 26 25 25 25 25 24 23 22 22
43 44 44 43 43 42 42 41 39 39 38 37 35 34 33 31 28 26 25 23 21 20 19 19 19 18 19 19 20 21 21 22 22 22 23 23 23 22 22 23 22 20 19
Wind_Direction
338 337 338 335 335 337 336 333 327 321 317 314 311 307 299 291 283 276 272 271 271 271 271 269 268 267 267 266 266 266 266 266 266 266 267 267 267 267 267 267 267 267 267
314 318 321 327 331 335 337 336 333 330 324 320 316 313 307 296 287 280 276 273 270 269 269 269 269 268 268 267 267 266 267 267 267 267 268 268 268 268 268 268 268 268 268
302 309 314 318 323 329 332 331 329 327 324 322 319 316 311 303 291 285 282 279 275 273 271 270 269 269 269 268 268 268 268 267 267 267 268 268 269 269 269 269 268 268 268
298 302 306 310 314 318 323 323 322 322 319 319 318 317 313 308 300 292 287 282 278 276 274 272 271 270 270 271 271 270 268 268 268 268 268 268 268 269 269 270 270 269 269
295 298 300 304 308 312 315 316 316 314 313 312 313 313 311 309 305 298 294 289 283 279 276 274 273 272 272 273 273 272 271 271 270 269 268 268 268 269 270 270 271 271 271
290 293 296 300 304 307 308 310 310 308 307 306 306 306 305 304 303 298 295 293 291 286 283 279 275 275 274 275 275 275 274 273 271 270 268 268 269 269 270 270 270 270 270
288 290 293 296 298 300 300 302 304 303 302 300 298 299 299 299 299 297 294 293 292 290 288 285 281 278 277 276 275 275 274 273 272 271 270 270 269 269 269 269 269 270 270
286 287 289 290 293 295 296 299 300 299 298 296 294 294 294 295 294 292 291 290 289 289 288 286 284 283 282 280 277 276 274 274 272 272 272 271 270 270 270 270 270 271 271
285 285 284 287 290 292 295 297 299 297 295 293 291 291 291 290 289 289 288 287 287 287 287 286 285 284 282 281 279 278 276 275 274 273 273 272 272 272 272 271 271 272 271
283 283 283 287 288 289 293 295 295 295 294 291 289 288 289 289 288 288 287 287 286 286 285 284 283 282 281 280 280 279 277 276 275 274 274 274 274 273 272 272 272 273 273
284 286 288 288 286 290 292 292 292 292 291 290 289 288 288 288 287 286 286 286 286 286 285 284 283 282 281 281 280 279 278 277 277 276 276 276 276 276 275 275 275 275 274
284 286 287 288 289 291 291 291 291 291 291 290 290 288 287 287 287 287 286 285 285 285 284 284 283 283 282 281 280 279 279 278 278 277 277 278 278 278 278 278 278 278 277
283 284 285 287 289 289 289 290 291 291 290 290 289 288 288 287 286 286 286 285 284 284 284 284 283 283 282 281 281 280 280 279 279 280 280 280 280 281 281 280 280 279 278
284 283 286 286 288 287 288 290 291 290 290 290 289 289 288 288 287 287 287 286 285 285 285 285 284 284 283 282 282 282 282 282 282 282 282 282 282 282 282 281 280 279 278
284 284 286 288 288 288 289 290 290 289 289 289 289 288 288 288 288 288 287 287 287 286 286 286 285 285 285 284 284 284 284 284 284 284 284 284 283 283 282 282 281 280 279
284 285 286 287 287 288 289 290 290 290 289 289 289 289 289 289 289 289 289 289 288 288 287 287 286 286 286 286 286 286 287 287 287 286 286 285 285 284 284 283 282 280 278
283 285 286 287 287 288 289 290 290 290 289 289 289 290 289 289 290 290 290 290 289 289 289 289 288 288 288 288 289 289 289 289 289 288 288 287 286 285 284 283 282 280 278
283 285 285 286 287 288 289 289 288 288 289 289 290 290 289 290 290 291 291 291 291 291 291 290 290 290 290 290 291 291 291 291 290 290 289 288 288 287 286 284 283 281 279
282 284 284 285 286 286 287 287 287 288 289 289 290 290 290 290 290 291 291 291 291 292 292 292 292 292 291 291 292 292 292 292 291 291 290 290 289 288 287 285 283 281 279
281 282 283 284 284 285 285 286 286 287 288 288 289 289 289 290 290 291 291 292 292 293 294 294 294 293 293 294 294 293 294 294 294 294 293 292 291 290 288 286 284 282 280
280 281 281 283 283 284 285 286 287 288 288 288 288 288 289 289 290 291 291 292 293 294 295 295 296 296 296 296 296 296 297 297 297 297 297 296 295 293 290 288 286 284 282
281 282 284 285 285 286 286 286 286 287 287 287 287 288 288 289 290 291 292 293 293 294 295 297 298 298 298 298 300 301 302 302 302 302 302 300 299 297 294 291 289 287 285
287 287 287 287 286 286 285 285 285 286 286 286 286 287 288 289 290 291 292 293 294 295 297 299 300 300 301 303 305 306 307 307 307 307 306 305 303 301 298 295 292 290 288
288 287 287 286 285 284 284 284 285 285 286 286 287 287 288 289 290 292 293 294 297 299 302 304 305 307 309 311 312 312 312 312 313 313 313 311 308 306 303 301 298 295 292
288 287 286 286 286 286 286 286 287 287 288 288 288 288 288 289 291 292 294 296 300 303 307 310 314 318 320 320 321 321 321 321 320 319 319 317 314 311 308 307 305 301 295
289 289 288 288 287 287 287 287 287 288 288 287 287 287 288 289 290 292 296 299 303 309 314 319 325 328 329 330 331 331 330 329 328 326 325 324 322 320 317 315 314 309 302
Height
5896 5894 5893 5891 5889 5886 5884 5881 5878 5876 5873 5870 5868 5866 5865 5864 5863 5862 5862 5862 5861 5861 5860 5859 5859 5859 5859 5858 5858 5858 5857 5857 5857 5856 5856 5855 5855 5855 5854 5854 5854 5854 5853
5893 5892 5890 5888 5886 5884 5881 5878 5875 5873 5870 5867 5865 5862 5861 5859 5858 5856 5856 5855 5855 5854 5854 5853 5853 5853 5852 5851 5851 5850 5850 5850 5849 5849 5848 5848 5847 5846 5846 5845 5845 5845 5845
5890 5889 5887 5885 5883 5881 5878 5876 5873 5870 5868 5865 5862 5859 5857 5855 5853 5851 5850 5849 5849 5848 5847 5846 5846 5845 5844 5844 5843 5843 5842 5841 5841 5840 5839 5839 5838 5837 5837 5836 5836 5835 5835
5885 5884 5882 5881 5879 5877 5875 5872 5870 5867 5865 5862 5859 5856 5853 5851 5849 5847 5845 5843 5842 5841 5840 5839 5838 5837 5836 5835 5835 5834 5833 5832 5832 5831 5830 5829 5829 5828 5827 5826 5825 5825 5824
5880 5878 5877 5875 5873 5871 5870 5868 5866 5863 5861 5858 5855 5852 5849 5847 5844 5842 5840 5838 5837 5835 5834 5832 5830 5829 5828 5827 5825 5824 5823 5822 5821 5821 5820 5819 5818 5817 5816 5815 5814 5813 5813
5873 5872 5871 5869 5867 5866 5864 5862 5860 5858 5856 5854 5851 5849 5846 5843 5840 5837 5835 5833 5831 5829 5827 5825 5823 5821 5820 5818 5816 5815 5813 5812 5810 5809 5808 5807 5806 5805 5804 5803 5802 5801 5800
5866 5865 5864 5863 5861 5859 5857 5856 5854 5852 5850 5848 5846 5844 5842 5839 5836 5833 5830 5827 5825 5822 5820 5818 5816 5813 5811 5809 5807 5804 5802 5801 5799 5797 5796 5794 5793 5792 5790 5789 5788 5787 5786
5858 5857 5856 5855 5853 5852 5850 5849 5847 5846 5844 5842 5840 5838 5836 5834 5831 5827 5824 5821 5818 5815 5812 5810 5807 5805 5802 5799 5797 5794 5791 5789 5787 5785 5782 5780 5778 5777 5775 5774 5772 5771 5770
5851 5849 5848 5847 5845 5844 5843 5841 5840 5838 5836 5835 5833 5831 5829 5827 5824 5821 5817 5814 5811 5807 5804 5801 5798 5794 5791 5788 5785 5782 5779 5777 5774 5771 5768 5765 5763 5761 5758 5757 5755 5754 5753
5841 5840 5838 5838 5837 5836 5834 5833 5831 5830 5828 5826 5824 5822 5820 5818 5815 5812 5809 5805 5801 5797 5793 5790 5786 5783 5779 5775 5772 5768 5765 5762 5759 5756 5752 5748 5745 5743 5740 5738 5736 5734 5733
5832 5832 5830 5829 5828 5826 5825 5824 5822 5821 5819 5817 5815 5812 5810 5807 5804 5802 5798 5794 5790 5785 5781 5777 5773 5769 5765 5761 5757 5753 5749 5745 5742 5738 5734 5730 5726 5723 5720 5718 5715 5713 5712
5825 5823 5821 5820 5819 5817 5815 5814 5813 5811 5809 5806 5804 5801 5799 5796 5793 5790 5786 5782 5778 5773 5767 5763 5758 5754 5750 5746 5741 5736 5732 5728 5723 5719 5715 5710 5706 5703 5700 5697 5694 5691 5689
5816 5814 5812 5811 5809 5808 5806 5804 5802 5800 5798 5795 5792 5789 5786 5783 5780 5776 5773 5769 5764 5759 5754 5748 5742 5738 5733 5728 5723 5718 5713 5708 5704 5699 5694 5690 5686 5682 5678 5675 5672 5669 5667
5806 5804 5802 5801 5800 5798 5796 5793 5791 5788 5786 5783 5780 5776 5773 5769 5765 5762 5758 5754 5749 5745 5738 5732 5725 5720 5715 5710 5704 5699 5693 5688 5684 5679 5674 5669 5665 5661 5657 5654 5651 5648 5645
5797 5794 5793 5791 5789 5787 5784 5782 5779 5776 5773 5770 5766 5763 5759 5754 5750 5746 5742 5738 5734 5729 5724 5716 5709 5702 5696 5691 5685 5679 5674 5668 5663 5658 5653 5649 5644 5640 5636 5633 5630 5627 5624
5787 5785 5783 5780 5778 5775 5772 5769 5766 5763 5760 5756 5752 5748 5744 5739 5735 5730 5725 5720 5716 5712 5707 5701 5693 5685 5678 5672 5666 5661 5655 5649 5644 5638 5633 5628 5624 5620 5616 5613 5609 5606 5604
5777 5774 5771 5768 5765 5762 5759 5756 5752 5749 5745 5741 5737 5733 5729 5724 5719 5714 5709 5703 5698 5693 5689 5683 5675 5668 5661 5655 5649 5643 5637 5631 5625 5620 5614 5609 5605 5601 5597 5593 5590 5588 5585
5765 5762 5759 5755 5752 5748 5745 5741 5737 5734 5730 5726 5722 5718 5713 5709 5703 5698 5693 5687 5682 5676 5671 5666 5659 5651 5644 5638 5633 5627 5620 5614 5609 5603 5597 5593 5588 5584 5580 5576 5573 5571 5568
5752 5748 5745 5741 5737 5733 5730 5726 5722 5718 5714 5710 5706 5702 5697 5693 5688 5682 5677 5671 5666 5660 5654 5650 5643 5636 5629 5622 5617 5611 5605 5599 5593 5588 5583 5578 5573 5569 5565 5561 5558 5555 5553
5738 5734 5730 5726 5722 5718 5714 5711 5707 5703 5699 5695 5690 5686 5682 5677 5672 5667 5662 5656 5651 5645 5639 5633 5628 5621 5614 5608 5603 5597 5592 5585 5580 5574 5569 5564 5560 5556 5552 5548 5545 5542 5539
5723 5719 5715 5711 5707 5703 5699 5695 5691 5687 5683 5679 5675 5672 5667 5662 5657 5652 5647 5642 5636 5631 5625 5620 5614 5608 5601 5596 5590 5585 5580 5575 5569 5563 5559 5553 5548 5544 5540 5536 5533 5530 5527
5709 5704 5700 5695 5691 5687 5684 5680 5676 5672 5668 5665 5661 5657 5652 5648 5643 5638 5633 5628 5623 5619 5613 5608 5602 5596 5591 5586 5580 5575 5570 5566 5561 5556 5550 5544 5539 5534 5530 5526 5523 5520 5517
5694 5690 5685 5681 5677 5673 5669 5665 5661 5657 5654 5650 5646 5643 5638 5634 5630 5625 5620 5616 5612 5607 5603 5598 5593 5588 5583 5578 5574 5569 5563 5558 5553 5548 5542 5537 5531 5526 5522 5518 5514 5511 5508
5680 5675 5671 5666 5662 5658 5654 5650 5646 5643 5639 5636 5632 5629 5625 5622 5618 5614 5610 5606 5602 5598 5594 5590 5585 5581 5576 5572 5567 5562 5557 5552 5546 5540 5535 5530 5525 5520 5515 5510 5507 5503 5500
5665 5661 5656 5652 5647 5643 5639 5636 5632 5629 5626 5623 5620 5617 5615 5612 5608 5605 5602 5598 5595 5591 5587 5584 5580 5575 5571 5567 5562 5557 5552 5547 5541 5535 5530 5524 5519 5514 5508 5504 5500 5497 5493
5652 5647 5643 5638 5634 5630 5626 5623 5621 5618 5615 5612 5610 5607 5605 5603 5600 5598 5595 5593 5590 5586 5583 5579 5576 5572 5568 5563 5558 5554 5548 5543 5537 5532 5526 5520 5514 5509 5504 5499 5495 5491 5487